Location: *
(37.4917°N, 71.5558°E)
Time: 20:57:23
(UTC+00:00)

Cosmos 1656 Rocket - Pass Details

Date: 09 April 2020
Orbit: 796 x 846 km, 71.1° (Epoch: 31 May)

Event Time Altitude Azimuth Distance (km) Brightness Sun altitude
Rises 14:01:43 0° 345° (NNW) 3,401 7.3 -4.3°
Reaches altitude 10° 14:04:20 10° 353° (N) 2,457 6.4 -4.8°
Maximum altitude 14:09:37 40° 62° (ENE) 1,204 4.2 -5.8°
Drops below altitude 10° 14:14:48 10° 131° (SE) 2,414 5.5 -6.8°
Enters shadow 14:16:22 - 137° (SE) 2,971 6.0 -7.1°
